GW3385 Weather Reports


time (UTC)temp
C
wind
direction
speed
KPH
gust
KPH
rain 1hr
cm
rain 24hr
cm
rain mn
cm
humidity
%
barometer
mb
20260507113055 12 0 0.0 0.0 0.00 0.00 0.00 88 1014.8
20260507112557 12 0 0.0 0.0 0.00 0.00 0.00 89 1014.8
20260507112057 12 0 0.0 0.0 0.00 0.00 0.00 88 1014.7
20260507111552 12 0 0.0 0.0 0.00 0.00 0.00 88 1014.9
20260507111054 12 0 0.0 0.0 0.00 0.00 0.00 88 1014.9
20260507110555 12 0 0.0 0.0 0.00 0.00 0.00 88 1014.9
20260507105555 13 0 0.0 0.0 0.00 0.00 0.00 88 1014.9
20260507105054 13 0 0.0 0.0 0.00 0.00 0.00 89 1014.9
20260507104554 13 0 0.0 0.0 0.00 0.00 0.00 90 1014.9
20260507104055 13 0 0.0 0.0 0.00 0.00 0.00 89 1015.0
20260507103555 12 0 0.0 0.0 0.00 0.00 0.00 89 1015.1
20260507103054 12 0 0.0 0.0 0.00 0.00 0.00 89 1015.0
20260507102554 12 0 0.0 0.0 0.00 0.00 0.00 88 1015.0
20260507102054 12 0 0.0 1.6 0.00 0.00 0.00 89 1015.1
20260507101603 12 0 0.0 1.6 0.00 0.00 0.00 89 1015.1
20260507101055 12 0 0.0 4.8 0.00 0.00 0.00 88 1015.1
20260507100555 12 0 0.0 4.8 0.00 0.00 0.00 88 1015.1
20260507100055 12 44 0.0 0.0 0.00 0.00 0.00 88 1015.3
20260507095555 13 0 0.0 0.0 0.00 0.00 0.00 88 1015.1
20260507095056 13 0 0.0 0.0 0.00 0.00 0.00 88 1015.2
20260507094554 13 0 0.0 0.0 0.00 0.00 0.00 88 1015.3
20260507094056 13 0 0.0 0.0 0.00 0.00 0.00 88 1015.2
20260507093554 13 0 0.0 0.0 0.00 0.00 0.00 88 1015.3
20260507093057 13 0 0.0 0.0 0.00 0.00 0.00 89 1015.4
20260507092558 13 0 0.0 0.0 0.00 0.00 0.00 89 1015.3
20260507092054 13 0 0.0 0.0 0.00 0.00 0.00 89 1015.3
20260507091558 13 0 0.0 0.0 0.00 0.00 0.00 89 1015.5
20260507091054 13 0 0.0 1.6 0.00 0.00 0.00 89 1015.4
20260507090556 13 0 0.0 1.6 0.00 0.00 0.00 90 1015.5
20260507090057 13 0 0.0 3.2 0.00 0.00 0.00 89 1015.5
20260507085555 13 0 0.0 3.2 0.00 0.00 0.00 89 1015.6
20260507085055 13 0 0.0 3.2 0.00 0.00 0.00 89 1015.6
20260507084555 13 0 0.0 3.2 0.00 0.00 0.00 89 1015.7
20260507084059 13 0 0.0 4.8 0.00 0.00 0.00 89 1015.7
20260507083555 13 0 1.6 4.8 0.00 0.00 0.00 89 1015.7
20260507083055 13 49 0.0 4.8 0.00 0.00 0.00 88 1015.8
20260507082554 13 0 0.0 4.8 0.00 0.00 0.00 88 1015.8
20260507082058 13 0 0.0 3.2 0.00 0.00 0.00 88 1015.9
20260507081557 13 0 0.0 3.2 0.00 0.00 0.00 88 1016.0
20260507081054 13 0 0.0 4.8 0.00 0.00 0.00 89 1016.0
20260507080556 13 0 0.0 4.8 0.00 0.00 0.00 89 1015.9
20260507075554 13 0 1.6 4.8 0.00 0.00 0.00 90 1015.9
20260507075055 13 57 0.0 4.8 0.00 0.00 0.00 90 1015.9
20260507074609 13 0 0.0 6.4 0.00 0.00 0.00 90 1015.9
20260507074055 13 360 1.6 6.4 0.00 0.00 0.00 90 1015.9
20260507073555 13 338 1.6 4.8 0.00 0.00 0.00 90 1015.9
20260507073053 13 0 0.0 4.8 0.00 0.00 0.00 90 1016.0
20260507072555 13 0 0.0 4.8 0.00 0.00 0.00 90 1016.1
20260507072056 13 0 1.6 4.8 0.00 0.00 0.00 90 1016.2
20260507071554 13 0 0.0 4.8 0.00 0.00 0.00 90 1016.2
20260507071056 13 0 0.0 4.8 0.00 0.00 0.00 90 1016.2
20260507070555 13 0 1.6 4.8 0.00 0.00 0.00 90 1016.1
20260507070055 13 0 0.0 0.0 0.00 0.00 0.00 90 1016.2
20260507065555 13 0 0.0 0.0 0.00 0.00 0.00 90 1016.1
20260507065054 13 0 0.0 0.0 0.00 0.00 0.00 90 1016.2
20260507064554 13 0 0.0 0.0 0.00 0.00 0.00 90 1016.2
20260507064054 13 0 0.0 0.0 0.00 0.00 0.00 90 1016.3
20260507063555 13 0 0.0 0.0 0.00 0.00 0.00 90 1016.3
20260507063054 13 0 0.0 0.0 0.00 0.00 0.00 90 1016.2
20260507062555 13 0 0.0 1.6 0.00 0.00 0.00 90 1016.2
20260507062055 13 0 0.0 3.2 0.00 0.00 0.00 90 1016.2
20260507061552 13 0 0.0 4.8 0.00 0.00 0.00 90 1016.1
20260507061054 13 67 1.6 4.8 0.00 0.00 0.00 90 1016.1
20260507060554 14 63 1.6 4.8 0.00 0.00 0.00 89 1016.1
20260507060054 14 74 0.0 3.2 0.00 0.00 0.00 89 1016.2
20260507055555 14 92 0.0 4.8 0.00 0.00 0.00 89 1016.2
20260507055054 14 92 0.0 4.8 0.00 0.00 0.00 89 1016.3
20260507054636 14 92 3.2 6.4 0.00 0.00 0.00 89 1016.1
20260507054054 14 0 1.6 6.4 0.00 0.00 0.00 89 1016.1
20260507053554 14 86 0.0 4.8 0.00 0.00 0.00 89 1016.2
20260507053054 14 0 0.0 4.8 0.00 0.00 0.00 88 1016.1
20260507052555 14 92 1.6 4.8 0.00 0.00 0.00 88 1016.1
20260507052055 14 34 0.0 4.8 0.00 0.00 0.00 88 1016.1
20260507051553 14 34 0.0 4.8 0.00 0.00 0.00 88 1016.1
20260507051055 14 34 1.6 4.8 0.00 0.00 0.00 87 1016.1
20260507050555 14 0 0.0 4.8 0.00 0.00 0.00 87 1016.1
20260507050057 15 22 0.0 4.8 0.00 0.00 0.00 87 1016.1
20260507045555 15 57 0.0 3.2 0.00 0.00 0.00 87 1016.1
20260507045055 15 0 0.0 3.2 0.00 0.00 0.00 87 1016.0
20260507044601 15 0 0.0 0.0 0.00 0.00 0.00 86 1016.0
20260507044054 15 0 0.0 0.0 0.00 0.00 0.00 86 1016.0
20260507043554 15 0 0.0 0.0 0.00 0.00 0.00 86 1016.0
20260507043055 15 0 0.0 4.8 0.00 0.00 0.00 85 1016.0
20260507042554 15 0 0.0 4.8 0.00 0.00 0.00 85 1016.0
20260507042054 15 77 0.0 3.2 0.00 0.00 0.00 85 1016.0
20260507041601 15 0 0.0 3.2 0.00 0.00 0.00 85 1015.9
20260507041051 15 0 0.0 6.4 0.00 0.00 0.00 85 1015.8
20260507040555 15 0 1.6 6.4 0.00 0.00 0.00 85 1015.8
20260507040055 15 81 1.6 4.8 0.00 0.00 0.00 84 1015.6
20260507035555 15 0 0.0 0.0 0.00 0.00 0.00 84 1015.8
20260507035055 15 0 0.0 1.6 0.00 0.00 0.00 84 1015.9
20260507034559 15 0 0.0 1.6 0.00 0.00 0.00 84 1015.8
20260507034056 15 0 0.0 4.8 0.00 0.00 0.00 84 1015.6
20260507033558 15 0 0.0 4.8 0.00 0.00 0.00 84 1015.5
20260507033104 15 0 1.6 4.8 0.00 0.00 0.00 84 1015.4
20260507032555 15 0 0.0 3.2 0.00 0.00 0.00 83 1015.5
20260507032055 15 0 0.0 3.2 0.00 0.00 0.00 83 1015.4
20260507031606 15 0 0.0 3.2 0.00 0.00 0.00 83 1015.4
20260507031056 15 0 0.0 4.8 0.00 0.00 0.00 83 1015.3
20260507030555 15 0 0.0 8.0 0.00 0.00 0.00 83 1015.3
20260507030058 15 292 0.0 9.7 0.00 0.00 0.00 83 1015.3
20260507025559 15 227 3.2 9.7 0.00 0.00 0.00 83 1015.2
20260507025055 15 273 1.6 9.7 0.00 0.00 0.00 82 1015.2
20260507024554 15 294 4.8 11.3 0.00 0.00 0.00 81 1015.2
20260507024056 16 271 6.4 11.3 0.00 0.00 0.00 81 1015.2
20260507023555 16 263 1.6 9.7 0.00 0.00 0.00 80 1015.1
20260507023103 16 185 3.2 8.0 0.00 0.00 0.00 80 1015.0
20260507022555 16 196 1.6 14.5 0.00 0.00 0.00 80 1015.1
20260507022055 16 244 4.8 14.5 0.00 0.00 0.00 80 1015.0
20260507021553 16 273 4.8 17.7 0.00 0.00 0.00 80 1015.1
20260507021057 16 273 9.7 17.7 0.00 0.00 0.00 78 1015.0
20260507020556 16 244 8.0 19.3 0.00 0.00 0.00 78 1014.9
20260507020057 16 260 9.7 19.3 0.00 0.00 0.00 78 1014.9
20260507015554 16 261 12.9 19.3 0.00 0.00 0.00 76 1014.8
20260507015055 16 272 9.7 17.7 0.00 0.00 0.00 76 1014.8
20260507014604 16 279 9.7 20.9 0.00 0.00 0.00 76 1014.9
20260507014056 16 276 4.8 20.9 0.00 0.00 0.00 76 1014.9
20260507013556 16 276 11.3 20.9 0.00 0.00 0.00 75 1015.0
20260507013102 16 284 11.3 17.7 0.00 0.00 0.00 76 1014.9
20260507012555 16 259 4.8 24.1 0.00 0.00 0.00 78 1014.8
20260507012100 16 238 9.7 24.1 0.00 0.00 0.00 77 1014.8
20260507011557 16 272 14.5 24.1 0.00 0.00 0.00 75 1014.8
20260507011059 17 243 8.0 22.5 0.00 0.00 0.00 77 1014.8
20260507010555 17 243 6.4 19.3 0.00 0.00 0.00 77 1014.8
20260507005555 16 236 14.5 22.5 0.00 0.00 0.00 76 1014.8
20260507005055 17 278 14.5 25.7 0.00 0.00 0.00 75 1014.7
20260507004557 17 267 12.9 25.7 0.00 0.00 0.00 74 1014.8
20260507004056 17 267 14.5 24.1 0.00 0.00 0.00 72 1014.7
20260507003555 17 275 12.9 24.1 0.00 0.00 0.00 72 1014.7
20260507003057 18 305 16.1 24.1 0.00 0.00 0.00 70 1014.7
20260507002556 18 265 4.8 19.3 0.00 0.00 0.00 72 1014.6
20260507002055 18 227 6.4 19.3 0.00 0.00 0.00 71 1014.7
20260507001602 18 186 8.0 24.1 0.00 0.00 0.00 70 1014.7
20260507001055 18 222 6.4 24.1 0.00 0.00 0.00 69 1014.7
20260507000555 18 267 11.3 24.1 0.00 0.00 0.00 67 1014.7
20260507000056 18 281 11.3 24.1 0.00 0.00 0.00 66 1014.7
20260506235558 18 213 6.4 17.7 0.00 0.00 0.00 69 1014.6
20260506235055 18 227 9.7 17.7 0.00 0.00 0.00 68 1014.6
20260506234554 18 208 6.4 19.3 0.00 0.00 0.00 67 1014.6
20260506234055 18 168 9.7 20.9 0.00 0.00 0.00 67 1014.6
20260506233555 18 267 6.4 20.9 0.00 0.00 0.00 68 1014.6
20260506233114 18 240 12.9 22.5 0.00 0.00 0.00 68 1014.7
20260506232554 18 282 9.7 22.5 0.00 0.00 0.00 68 1014.7
20260506232054 18 201 11.3 22.5 0.00 0.00 0.00 68 1014.7
20260506231555 18 265 9.7 22.5 0.00 0.00 0.00 67 1014.8
20260506231056 18 284 9.7 22.5 0.00 0.00 0.00 66 1014.7
20260506230555 18 224 9.7 19.3 0.00 0.00 0.00 65 1014.8
20260506230052 18 229 9.7 25.7 0.00 0.00 0.00 67 1014.8
20260506225555 18 149 12.9 25.7 0.00 0.00 0.00 66 1014.8
20260506225054 18 213 11.3 25.7 0.00 0.00 0.00 66 1014.7
20260506224554 18 175 11.3 25.7 0.00 0.00 0.00 65 1014.9
20260506224058 18 192 11.3 22.5 0.00 0.00 0.00 65 1015.0
20260506223559 18 296 12.9 22.5 0.00 0.00 0.00 64 1015.1
20260506223055 18 280 12.9 22.5 0.00 0.00 0.00 65 1015.1
20260506222555 18 275 6.4 24.1 0.00 0.00 0.00 65 1015.2
20260506222055 18 268 12.9 24.1 0.00 0.00 0.00 65 1015.2
20260506221558 19 217 9.7 24.1 0.00 0.00 0.00 64 1015.3
20260506221054 19 166 6.4 24.1 0.00 0.00 0.00 64 1015.3
20260506220555 18 275 11.3 24.1 0.00 0.00 0.00 64 1015.5
20260506220056 18 314 11.3 24.1 0.00 0.00 0.00 63 1015.5
20260506215554 18 275 12.9 20.9 0.00 0.00 0.00 63 1015.5
20260506215054 18 261 12.9 22.5 0.00 0.00 0.00 64 1015.6
20260506214555 18 265 12.9 22.5 0.00 0.00 0.00 64 1015.6
20260506214055 18 223 11.3 20.9 0.00 0.00 0.00 61 1015.7
20260506213555 18 262 11.3 22.5 0.00 0.00 0.00 62 1015.7
20260506213111 18 221 12.9 22.5 0.00 0.00 0.00 61 1015.8
20260506212555 19 277 12.9 20.9 0.00 0.00 0.00 61 1015.8
20260506212056 19 282 6.4 24.1 0.00 0.00 0.00 60 1015.9
20260506211558 19 177 11.3 24.1 0.00 0.00 0.00 61 1016.0
20260506211055 18 252 9.7 20.9 0.00 0.00 0.00 64 1015.9
20260506210555 19 295 9.7 20.9 0.00 0.00 0.00 64 1016.1
20260506210057 18 299 11.3 20.9 0.00 0.00 0.00 63 1016.0
20260506205555 19 198 8.0 20.9 0.00 0.00 0.00 63 1016.1
20260506205055 19 290 8.0 20.9 0.00 0.00 0.00 63 1016.1
20260506204559 19 202 11.3 20.9 0.00 0.00 0.00 64 1016.2
20260506204054 18 26 8.0 17.7 0.00 0.00 0.00 65 1016.1
20260506203557 18 181 11.3 17.7 0.00 0.00 0.00 66 1016.1
20260506203055 18 189 9.7 20.9 0.00 0.00 0.00 65 1016.2
20260506202557 18 250 9.7 20.9 0.00 0.00 0.00 66 1016.1
20260506202055 18 246 11.3 20.9 0.00 0.00 0.00 64 1016.2
20260506201556 18 229 9.7 16.1 0.00 0.00 0.00 64 1016.3
20260506201054 18 203 6.4 16.1 0.00 0.00 0.00 65 1016.3
20260506200554 18 255 9.7 19.3 0.00 0.00 0.00 65 1016.4
20260506200054 18 297 8.0 19.3 0.00 0.00 0.00 65 1016.5
20260506195554 18 245 8.0 19.3 0.00 0.00 0.00 64 1016.6
20260506195056 18 215 9.7 19.3 0.00 0.00 0.00 64 1016.6
20260506194623 18 205 6.4 22.5 0.00 0.00 0.00 64 1016.5
20260506194058 18 198 6.4 22.5 0.00 0.00 0.00 66 1016.6
20260506193555 18 189 11.3 22.5 0.00 0.00 0.00 66 1016.5
20260506193104 18 263 8.0 17.7 0.00 0.00 0.00 66 1016.7
20260506192555 18 191 4.8 16.1 0.00 0.00 0.00 66 1016.8
20260506192054 18 236 4.8 19.3 0.00 0.00 0.00 66 1016.9
20260506191553 18 280 8.0 19.3 0.00 0.00 0.00 67 1017.0
20260506191056 18 250 6.4 20.9 0.00 0.00 0.00 66 1016.9
20260506190555 18 184 9.7 20.9 0.00 0.00 0.00 67 1017.0
20260506190057 18 263 8.0 17.7 0.00 0.00 0.00 67 1017.1
20260506185555 18 277 6.4 24.1 0.00 0.00 0.00 68 1017.1
20260506185056 18 208 9.7 24.1 0.00 0.00 0.00 69 1017.1
20260506184554 18 271 11.3 24.1 0.00 0.00 0.00 69 1017.1
20260506184055 18 281 11.3 17.7 0.00 0.00 0.00 68 1017.1
20260506183555 18 273 8.0 17.7 0.00 0.00 0.00 68 1017.0
20260506183055 18 286 8.0 16.1 0.00 0.00 0.00 69 1017.1
20260506182555 18 178 8.0 17.7 0.00 0.00 0.00 68 1017.2
20260506182054 18 140 6.4 17.7 0.00 0.00 0.00 69 1017.1
20260506181555 18 302 4.8 14.5 0.00 0.00 0.00 69 1017.2
20260506181052 18 225 6.4 16.1 0.00 0.00 0.00 69 1017.2
20260506180553 18 303 8.0 17.7 0.00 0.00 0.00 71 1017.2
20260506180104 18 188 6.4 17.7 0.00 0.00 0.00 70 1017.1
20260506175552 18 199 6.4 17.7 0.00 0.00 0.00 69 1017.2
20260506175056 18 171 8.0 14.5 0.00 0.00 0.00 68 1017.3
20260506174557 18 130 3.2 11.3 0.00 0.00 0.00 66 1017.4
20260506174052 18 168 4.8 12.9 0.00 0.00 0.00 67 1017.4
20260506173553 18 102 3.2 12.9 0.00 0.00 0.00 68 1017.3
20260506173058 18 295 6.4 16.1 0.00 0.00 0.00 68 1017.2
20260506172551 18 265 6.4 16.1 0.00 0.00 0.00 67 1017.3
20260506172055 18 186 3.2 14.5 0.00 0.00 0.00 67 1017.3
20260506171601 18 309 1.6 9.7 0.00 0.00 0.00 67 1017.3
20260506171056 18 257 1.6 4.8 0.00 0.00 0.00 67 1017.3
20260506170552 17 87 1.6 6.4 0.00 0.00 0.00 68 1017.1
20260506170106 17 265 1.6 9.7 0.00 0.00 0.00 68 1017.1
20260506165552 17 0 3.2 9.7 0.00 0.00 0.00 68 1017.2
20260506165053 17 218 3.2 9.7 0.00 0.00 0.00 68 1017.2
20260506164607 17 0 1.6 9.7 0.00 0.00 0.00 69 1017.1
20260506164053 17 274 4.8 9.7 0.00 0.00 0.00 70 1017.1
20260506163552 17 226 3.2 9.7 0.00 0.00 0.00 70 1017.2
20260506163119 17 0 1.6 6.4 0.00 0.00 0.00 72 1017.1
20260506162553 17 59 1.6 8.0 0.00 0.00 0.00 72 1017.2
20260506162054 17 198 3.2 9.7 0.00 0.00 0.00 73 1017.4
20260506161616 17 175 1.6 9.7 0.00 0.00 0.00 72 1017.3
20260506161052 17 80 3.2 9.7 0.00 0.00 0.00 73 1017.3
20260506160555 17 92 3.2 9.7 0.00 0.00 0.00 73 1017.3
20260506160057 17 109 1.6 6.4 0.00 0.00 0.00 74 1017.3
20260506155556 16 89 1.6 8.0 0.00 0.00 0.00 75 1017.4
20260506155054 16 62 1.6 8.0 0.00 0.00 0.00 76 1017.4
20260506154619 16 55 1.6 9.7 0.00 0.00 0.00 77 1017.4
20260506154052 16 5 1.6 9.7 0.00 0.00 0.00 77 1017.3
20260506153553 16 85 1.6 9.7 0.00 0.00 0.00 78 1017.4
20260506153107 15 118 3.2 9.7 0.00 0.00 0.00 79 1017.4
20260506152553 15 83 0.0 11.3 0.00 0.00 0.00 81 1017.3
20260506152058 15 32 1.6 11.3 0.00 0.00 0.00 81 1017.3
20260506151558 15 0 4.8 11.3 0.00 0.00 0.00 81 1017.3
20260506151052 15 93 4.8 11.3 0.00 0.00 0.00 81 1017.2
20260506150555 15 57 1.6 8.0 0.00 0.00 0.00 82 1017.3
20260506150052 15 0 1.6 12.9 0.00 0.00 0.00 82 1017.3
20260506145554 15 31 3.2 12.9 0.00 0.00 0.00 82 1017.3
20260506145054 15 75 3.2 9.7 0.00 0.00 0.00 82 1017.3
20260506144553 15 59 3.2 8.0 0.00 0.00 0.00 82 1017.4
20260506144054 14 26 1.6 8.0 0.00 0.00 0.00 82 1017.3
20260506143555 14 352 1.6 8.0 0.00 0.00 0.00 83 1017.4
20260506143104 13 35 1.6 8.0 0.00 0.00 0.00 83 1017.4
20260506142556 13 21 0.0 6.4 0.00 0.00 0.00 84 1017.2
20260506142052 13 43 1.6 4.8 0.00 0.00 0.00 85 1017.2
20260506141554 13 0 0.0 4.8 0.00 0.00 0.00 85 1017.1
20260506141055 13 20 0.0 4.8 0.00 0.00 0.00 85 1017.1
20260506140555 12 0 0.0 3.2 0.00 0.00 0.00 85 1017.0
20260506140057 12 345 0.0 3.2 0.00 0.00 0.00 85 1017.0
20260506135552 12 0 0.0 1.6 0.00 0.00 0.00 86 1016.9
20260506135052 12 0 0.0 3.2 0.00 0.00 0.00 87 1016.9
20260506134555 12 0 0.0 3.2 0.00 0.00 0.00 87 1016.7
20260506134052 12 0 0.0 3.2 0.00 0.00 0.00 87 1016.8
20260506133552 11 0 0.0 1.6 0.00 0.00 0.00 88 1016.8
20260506133057 11 0 0.0 3.2 0.00 0.00 0.00 88 1016.7
20260506132551 11 0 0.0 3.2 0.00 0.00 0.00 88 1016.7
20260506132057 11 0 0.0 1.6 0.00 0.00 0.00 87 1016.7
20260506131557 11 0 0.0 3.2 0.00 0.00 0.00 87 1016.6
20260506131052 11 0 0.0 4.8 0.00 0.00 0.00 87 1016.6
20260506130553 11 0 0.0 4.8 0.00 0.00 0.00 88 1016.5
20260506130054 11 342 0.0 4.8 0.00 0.00 0.00 87 1016.5
20260506125552 11 331 0.0 1.6 0.00 0.00 0.00 87 1016.3
20260506125057 11 0 0.0 1.6 0.00 0.00 0.00 87 1016.3
20260506124553 11 0 0.0 0.0 0.00 0.00 0.00 87 1016.2
20260506124052 11 0 0.0 0.0 0.00 0.00 0.00 87 1016.2
20260506123553 11 0 0.0 0.0 0.00 0.00 0.00 87 1016.0
20260506123055 11 0 0.0 0.0 0.00 0.00 0.00 87 1016.1
20260506122553 11 0 0.0 0.0 0.00 0.00 0.00 87 1016.1
20260506122052 11 0 0.0 1.6 0.00 0.00 0.00 87 1016.1
20260506121553 11 0 0.0 3.2 0.00 0.00 0.00 87 1016.0
20260506121055 11 0 0.0 3.2 0.00 0.00 0.00 87 1016.0
20260506120555 11 332 0.0 3.2 0.00 0.00 0.00 87 1016.0
20260506120058 11 0 0.0 3.2 0.00 0.00 0.00 87 1016.0
20260506115552 11 0 0.0 3.2 0.00 0.00 0.00 87 1015.9
20260506115052 11 321 0.0 0.0 0.00 0.00 0.00 87 1015.9
20260506114605 11 0 0.0 1.6 0.00 0.00 0.00 87 1015.9
20260506114058 11 0 0.0 3.2 0.00 0.00 0.00 87 1016.0
20260506113552 11 0 0.0 3.2 0.00 0.00 0.00 87 1015.9